agoravox.tv alexa rank chart, agoravox.tv alexa rank daily changes

agoravox.tv alexa rank chart, agoravox.tv alexa rank daily changes

agoravox.tv
Actual rank:
49 576

RANK HISTORY

Date Rank Diff
2016/11/28 49 576 +209
2016/11/27 49 367 +848
2016/11/26 48 519 +76
2016/11/25 48 443 +184
2016/11/24 48 259 +538
2016/11/23 47 721 -1 216
2016/11/19 48 937 -278
2016/11/18 49 215 +1 096
2016/11/17 48 119 +413
2016/11/16 47 706 +671
2016/11/15 47 035 -758
2016/11/14 47 793 -1 184
2016/11/13 48 977 +508
2016/11/12 48 469 -359
2016/11/11 48 828 +570
2016/11/10 48 258 -295
2016/11/09 48 553 +325
2016/11/08 48 228 -2
2016/11/07 48 230 +955
2016/11/06 47 275 +516
2016/11/05 46 759 +311
2016/11/04 46 448 +761
2016/11/03 45 687 +282
2016/11/02 45 405 +455
2016/11/01 44 950 +438
2016/10/31 44 512 -1 003
2016/10/30 45 515 -163
2016/10/29 45 678 -138
2016/10/28 45 816 -279
2016/10/27 46 095 -361
2016/10/26 46 456 +755
2016/10/25 45 701 -466
2016/10/24 46 167 -1 061
2016/10/23 47 228 -1 286
2016/10/22 48 514 +680
2016/10/21 47 834 +549
2016/10/20 47 285 +556
2016/10/19 46 729 +615
2016/10/18 46 114 +29
2016/10/17 46 085 +139
2016/10/16 45 946 -170
2016/10/15 46 116 -5 979
2016/10/14 52 095 +93
2016/10/13 52 002 +15
2016/10/12 51 987 +279
2016/10/11 51 708 -306
2016/10/10 52 014 -345
2016/10/09 52 359 -208
2016/10/08 52 567 +7 010
2016/10/07 45 557 -9 693
2016/10/06 55 250 +8 651
2016/10/05 46 599 +84
2016/10/04 46 515 -1 008
2016/10/03 47 523 -848
2016/10/02 48 371 -938
2016/10/01 49 309 -504
2016/09/30 49 813 -587
2016/09/29 50 400

WIDGET FOR YOUR SITE

DOMAINS WITH THE NEAREST RANK

Domain Rank
wacom.co.jp 49 571
rolex-china.net 49 572
aiseen.org 49 573
hugefiles.net 49 574
farmandfleet.com 49 575
agoravox.tv 49 576
hoepli.it 49 577
animesave.com 49 578
tempoagora.com.br 49 579
rrd.com 49 580
shoujikz.com 49 581

DOMAINS WITH THE NEAREST RANK BY TLD .tv

Domain Rank
watchnaruto.tv 49 101
ipplaybox.tv 49 142
dewapoker.tv 49 244
liquidsky.tv 49 419
playboy.tv 49 453
agoravox.tv 49 576
freshon.tv 49 920
tafeio.tv 49 962
sexable.tv 50 015
pakistantv.tv 50 036
hmyy.tv 50 106